Вернуться в каталог

STARLINK-35237

АктивенСвязьVLEO
NORAD 65645·PAYLOAD·🇺🇸 United States

Запущен Sep 18, 2025 с Cape Canaveral Space Force Station

Loading…

Ближайшие Пролёты (ближайшие 24 часа)

TLE

СвежийSource: CelesTrak SupGP

Эпоха: Sep 14, 2026, 21:25 UTC

1 65645C 25210Z   26257.89284722 -.00067431  00000+0 -19918-2 0  2579
2 65645  53.1593 147.8282 0001309  86.1938 318.2134 15.34431579    19

Отслеживайте STARLINK-35237 в реальном времени с AllMySat

Download on the App Store